Vertical_Velocity
-0 0 1 1 0 -0 -1 -1 -2 -2 -2 -2 -2 -1 0 2 2 2 1 1 2 3 3 1 2 3 2 0 -1 0 2 3 1 0 1 1 -1 -2 -3 -3 -2 -1 -1 -1 0 0 0 -0 -0 0 0 0 0 -1 -2 -2 -3 -3 -2 -2 -0 1 2 2 2 2 2 2 2
0 0 0 0 0 -0 -0 -1 -1 -2 -2 -1 -1 -1 -0 1 1 1 1 1 3 3 2 1 2 2 2 2 1 -1 0 5 4 2 1 1 0 -1 -2 -3 -4 -5 -4 -3 -2 -1 -1 -1 -1 -1 -1 -1 -1 -1 -2 -3 -3 -3 -2 -2 -0 1 2 3 3 3 3 3 3
-1 -1 -0 0 0 0 0 -0 -1 -1 -1 -1 -1 -1 -1 -0 0 1 1 2 3 2 1 0 1 1 2 3 2 -0 -1 2 6 5 3 0 0 1 1 -1 -1 0 2 0 -2 -3 -2 -2 -2 -2 -3 -3 -3 -3 -3 -3 -3 -3 -2 -0 1 2 3 3 3 3 3 3 2
-2 -1 -1 -0 0 0 0 0 -0 -1 -1 -1 -1 -1 -1 -1 -0 0 1 2 2 1 0 0 1 1 2 3 2 1 -1 -1 4 6 5 0 -1 0 1 1 1 4 6 6 4 0 -2 -3 -2 -2 -2 -3 -4 -5 -5 -6 -4 -3 -1 -0 1 1 2 2 1 1 1 1 1
-2 -2 -2 -1 -1 -1 -0 -0 -0 -0 -0 -1 -1 -1 -1 -1 -1 -0 0 1 2 2 1 1 0 0 0 2 2 1 -0 -2 -1 3 5 3 -1 -2 -1 1 1 1 2 5 6 6 3 -1 -2 -2 -2 -2 -3 -5 -6 -7 -6 -5 -3 -1 0 2 2 1 -0 -0 -0 -0 -1
-2 -2 -3 -3 -2 -1 -0 -0 0 1 1 -0 -1 -1 -1 -1 -1 -1 -0 1 1 2 2 1 -0 -0 0 1 2 2 1 -1 -2 0 3 5 3 1 -0 1 1 1 -1 -2 1 4 6 5 1 -2 -4 -4 -4 -4 -5 -5 -6 -6 -5 -4 -2 0 2 2 0 0 0 -0 -1
-2 -2 -3 -3 -2 -2 -1 -0 0 1 0 -1 -1 -1 -1 -1 -2 -1 -1 -0 0 0 0 1 1 1 1 1 1 1 1 0 -0 0 1 3 3 2 1 2 3 2 0 -3 -4 -1 3 9 6 1 -3 -6 -6 -5 -5 -5 -4 -4 -5 -5 -5 -3 -0 1 2 2 2 1 0
-3 -2 -3 -3 -2 -2 -2 -1 -1 -0 -0 -0 1 1 -0 -2 -2 -2 -1 -1 -2 -1 0 2 2 1 1 1 0 0 0 1 1 1 1 1 -0 -0 0 3 5 5 2 -3 -5 -5 -1 5 7 5 1 -2 -3 -4 -5 -5 -4 -3 -3 -4 -6 -5 -4 -2 -1 1 2 3 2
-4 -3 -3 -3 -2 -2 -2 -2 -1 -1 0 1 2 2 0 -2 -3 -3 -2 -3 -3 -2 -1 0 1 1 1 0 0 0 0 1 1 1 1 0 -2 -2 -2 1 4 5 4 -1 -4 -6 -4 -0 3 3 3 2 1 -1 -3 -3 -2 -2 -1 -2 -3 -4 -4 -4 -3 -2 -1 1 0
-5 -4 -3 -3 -2 -2 -2 -2 -2 -1 0 2 2 2 1 -1 -2 -3 -3 -4 -4 -4 -4 -2 -0 1 1 1 1 0 -0 0 1 1 0 -1 -1 -2 -2 -1 1 2 2 1 -1 -3 -2 -1 1 1 0 0 2 2 1 -0 0 0 0 -1 -2 -2 -2 -2 -3 -4 -3 -2 -2
-5 -5 -4 -3 -3 -2 -1 -1 -1 -0 0 1 2 1 0 -1 -2 -3 -3 -4 -5 -6 -5 -3 -1 0 0 1 -0 -1 -2 -1 0 1 0 -0 -1 -1 -2 -1 -1 -1 -2 -2 -1 -0 1 1 2 1 -0 -2 0 2 2 2 2 2 1 0 -1 -1 -1 -0 -2 -3 -3 -3 -2
-5 -4 -4 -4 -3 -2 -1 -0 -0 0 0 1 1 0 -1 -1 -1 -1 -2 -3 -5 -5 -4 -2 -1 -0 -0 -0 -2 -3 -3 -3 -1 -0 0 -0 -1 -2 -1 -1 -1 -2 -3 -5 -4 -2 -1 0 1 1 -0 -1 -0 1 2 1 2 2 1 1 1 1 0 -0 -1 -1 -2 -3 -3
-4 -4 -4 -4 -3 -3 -1 -0 0 0 0 0 -1 -1 -2 -1 -0 0 -0 -2 -3 -3 -2 -0 0 0 0 -1 -3 -4 -4 -4 -3 -2 -1 -1 -2 -2 -3 -2 -1 -1 -3 -6 -6 -5 -3 -2 -2 -1 -1 -1 -0 1 1 1 0 -0 -0 -0 0 1 1 -0 -2 -2 -1 -1 -2
-4 -4 -4 -4 -3 -3 -2 -1 -0 0 0 0 -1 -2 -2 -0 1 1 0 -1 -2 -2 -0 2 2 1 -0 -1 -2 -3 -4 -4 -4 -3 -3 -2 -3 -4 -4 -4 -3 -1 -1 -5 -7 -6 -4 -3 -4 -3 -3 -2 -1 -0 0 0 -1 -2 -2 -3 -3 -1 -0 -1 -3 -2 -1 0 0
-3 -4 -4 -3 -3 -2 -2 -1 -1 -1 -0 -0 -1 -1 -1 0 1 1 0 -0 -1 0 2 3 2 0 -1 -1 -1 -1 -2 -3 -4 -4 -4 -3 -4 -4 -5 -6 -5 -2 -0 -3 -6 -5 -4 -3 -4 -5 -4 -3 -2 -1 -1 -1 -1 -1 -2 -3 -3 -3 -2 -2 -4 -4 -3 -1 2
-2 -3 -3 -3 -3 -2 -2 -2 -2 -1 -0 -0 -0 -0 0 1 1 0 -0 -0 0 2 2 3 2 0 -1 -0 0 1 0 -1 -2 -3 -3 -3 -3 -3 -4 -5 -5 -2 0 -1 -3 -4 -3 -3 -4 -4 -4 -3 -2 -2 -2 -1 -1 -1 -1 -2 -2 -2 -3 -3 -5 -6 -7 -5 2
-2 -2 -3 -2 -2 -2 -2 -2 -1 -1 -0 -0 0 1 1 2 1 0 -0 -0 0 1 2 3 2 1 -0 -0 1 2 2 1 -1 -2 -2 0 3 3 1 -2 -2 -0 1 1 -2 -3 -2 -2 -3 -3 -2 -2 -2 -2 -2 -1 -1 -1 -1 -1 -0 -1 -1 -3 -4 -7 -10 -10 1
-1 -1 -2 -2 -2 -2 -2 -1 -1 -0 0 0 1 1 2 2 2 1 -0 -0 0 0 1 2 2 1 0 1 2 2 2 2 1 -1 -0 3 8 9 8 5 4 4 5 5 -0 -2 -2 -1 -1 -1 -1 -1 -1 -1 -2 -1 -1 -1 -1 -1 -0 0 0 -0 -3 -6 -9 -10 1
-0 -1 -1 -1 -1 -1 -1 -1 0 0 0 0 1 2 2 3 2 1 1 0 -0 0 1 1 1 1 1 1 2 1 1 1 1 0 0 2 7 10 12 11 10 11 12 11 3 -1 -2 -0 -0 0 0 0 -0 -1 -1 -1 -1 -1 -1 -1 -1 0 1 1 -1 -4 -6 -6 1
0 0 -0 -0 -0 -0 0 0 1 1 1 1 2 2 3 3 3 2 2 1 0 0 0 0 0 1 1 1 1 0 0 1 1 0 0 1 5 8 10 12 12 13 14 14 6 0 -2 0 1 1 1 1 1 0 -0 -0 -0 -1 -1 -1 -1 -0 0 1 -0 -2 -3 -2 1
0 0 0 -0 0 0 0 1 1 1 2 2 3 3 3 3 3 3 2 2 1 1 1 0 0 0 0 0 -0 -0 0 0 0 0 0 1 2 4 6 9 10 11 11 11 4 1 -0 1 1 2 2 1 1 1 1 0 -0 -1 -1 -2 -1 -1 -0 0 -0 -1 -1 -1 0
-0 -0 -0 -0 -0 -0 0 0 1 1 2 2 2 3 3 4 4 3 3 2 2 1 1 1 1 0 0 -0 -1 -1 -0 -0 -1 0 1 1 1 2 5 9 11 12 10 7 1 -1 -1 1 2 2 2 1 2 2 2 1 0 -0 -1 -1 -2 -1 -1 -1 -0 -0 -1 -1 -0
-1 -1 -1 -0 -0 -0 0 0 0 1 1 1 2 2 3 3 3 3 3 3 2 2 1 1 1 1 0 0 -0 -0 -0 -0 -0 0 1 1 1 2 4 9 13 14 12 7 1 -2 -3 -1 1 2 3 2 2 2 1 1 0 0 -0 -1 -1 -1 -1 -0 -0 -0 -1 -1 -1
-2 -1 -1 -0 -0 -0 -0 -0 0 0 0 1 1 1 2 2 3 3 3 2 2 2 1 1 1 2 2 1 1 1 1 1 1 1 0 0 1 2 3 7 12 14 13 11 5 1 -1 -1 2 4 4 4 3 2 1 0 0 0 -0 -0 0 0 0 0 -0 -1 -1 -1 -0
-2 -2 -1 -1 -1 -1 -1 -1 -0 -0 -0 0 0 1 1 2 2 2 2 2 1 1 1 2 2 2 2 2 2 2 2 2 1 0 0 -0 1 2 3 5 9 11 13 13 11 9 6 5 4 5 5 5 4 3 1 0 0 0 0 0 1 1 1 1 0 -0 -1 -1 -0
-2 -2 -2 -1 -1 -1 -1 -1 -1 -1 -1 -0 -0 0 0 0 1 1 1 1 0 0 1 1 2 2 2 2 2 2 2 2 1 1 0 1 1 2 3 5 7 9 10 11 13 13 14 14 11 7 4 3 4 4 3 1 1 1 1 2 2 2 2 2 1 0 -1 -1 -1
-2 -2 -2 -2 -1 -1 -1 -1 -1 -1 -1 -1 -1 -1 -0 -0 -0 0 0 -0 -0 -0 0 1 1 2 2 2 2 2 2 2 1 1 1 1 2 2 2 4 6 7 8 8 9 11 14 17 15 11 5 1 2 3 3 2 2 2 4 4 5 4 3 2 2 1 0 -0 0
-3 -2 -2 -1 -1 -1 -1 -1 -1 -1 -1 -1 -1 -1 -1 -1 -0 -0 -1 -1 -1 -1 -0 0 0 1 1 1 1 1 1 1 1 1 1 2 1 1 1 2 4 5 7 8 6 5 6 11 14 13 9 5 2 2 3 3 2 2 4 5 5 5 4 2 2 1 1 1 1
-3 -2 -2 -2 -1 -2 -2 -2 -2 -2 -2 -2 -1 -1 -1 -1 -1 -1 -1 -1 -1 -1 -1 -1 -0 0 1 1 0 0 0 0 1 1 2 2 1 0 -0 -0 0 3 6 8 7 4 0 0 7 11 12 9 5 3 3 3 3 3 3 4 4 4 3 2 1 1 1 1 1
-2 -2 -2 -2 -2 -2 -2 -2 -1 -1 -1 -1 -1 -1 -1 -1 -1 -1 -0 -0 -1 -1 -1 -1 -0 -0 0 -0 -0 0 0 0 1 1 1 1 1 -0 -1 -2 -1 0 2 5 7 5 1 -4 -2 3 8 11 9 7 6 5 5 5 5 5 5 5 4 3 2 1 0 1 1
-2 -2 -2 -2 -2 -2 -1 -1 -1 -0 -0 -1 -1 -1 -1 -1 -1 -0 -0 -0 -0 -1 -0 0 0 -0 -1 -1 -0 0 1 1 1 1 1 1 1 0 -1 -2 -2 -2 -1 1 3 4 2 -3 -6 -4 0 4 8 9 10 9 9 9 9 9 9 8 8 6 4 3 1 1 1
-2 -2 -2 -2 -2 -1 -1 0 0 0 0 -0 -1 -1 -1 -0 -0 0 0 0 0 0 1 1 0 -0 -0 -0 0 1 1 1 1 1 1 1 1 1 1 -0 -1 -2 -2 -1 0 2 1 -1 -5 -6 -5 -2 2 5 7 9 11 12 13 13 11 10 8 7 6 5 3 2 2
-2 -3 -2 -2 -2 -1 -1 0 0 0 -0 -0 -0 -1 -0 -0 0 0 1 0 0 0 0 0 0 0 0 0 0 0 0 0 0 0 1 1 1 1 1 1 0 -1 -1 -1 -0 0 0 -1 -4 -6 -7 -5 -2 0 2 4 6 10 12 12 11 9 7 5 4 4 3 3 3
-2 -3 -3 -2 -2 -1 -1 -0 -0 -1 -1 -1 -1 -1 -1 -1 -0 -0 0 0 -0 -0 -0 -0 -0 -0 -0 -0 0 0 -0 -0 0 0 0 0 0 0 0 -0 -1 -1 -0 0 0 0 0 -1 -3 -5 -6 -6 -4 -2 -0 0 0 2 5 6 6 5 4 3 3 3 2 2 2
-2 -2 -3 -2 -2 -2 -1 -1 -1 -1 -2 -2 -2 -2 -1 -1 -1 -1 -1 -1 -0 -0 -0 -0 -0 -0 0 0 0 0 0 0 0 0 0 0 -0 -0 -1 -1 -2 -1 -0 0 1 1 1 0 -1 -2 -3 -4 -3 -2 -1 -1 -1 -2 -2 -1 0 1 1 2 2 2 2 2 3
-2 -2 -2 -2 -2 -2 -2 -1 -1 -2 -2 -2 -2 -2 -2 -2 -1 -1 -1 -0 -0 -0 -0 -0 0 0 0 0 0 0 0 0 0 0 -0 -0 -0 -1 -1 -2 -2 -1 -1 -0 0 0 0 1 1 1 0 -0 -1 -2 -2 -1 -1 -2 -2 -3 -2 -1 0 2 2 3 3 3 3
-3 -2 -2 -2 -2 -2 -1 -1 -1 -1 -1 -2 -2 -2 -2 -2 -1 -1 -1 -0 -0 -0 -0 -0 0 0 0 0 0 0 0 0 0 0 -0 -0 -1 -1 -1 -2 -1 -1 -1 -0 -1 -1 -1 0 1 1 2 2 2 0 -1 -1 -1 -1 -1 -1 -1 -1 0 2 3 3 4 4 4
-3 -3 -3 -2 -2 -2 -1 -1 -1 -1 -1 -1 -1 -2 -1 -1 -1 -1 -1 -1 -1 -1 -1 -0 -0 -1 -0 -0 -0 0 0 0 -0 -0 -1 -1 -1 -1 0 1 3 4 5 3 0 -1 -2 -1 -1 0 1 2 3 2 1 -1 -1 -1 -1 -1 -0 0 1 2 2 3 3 3 3
-2 -3 -3 -2 -2 -2 -1 -1 -1 -0 -0 -0 -1 -1 -1 -1 -1 -1 -1 -1 -1 -1 -1 -1 -1 -1 -1 -1 -1 -1 -1 -1 -1 -1 -1 -1 -1 1 2 5 7 9 9 6 1 -1 -2 -2 -2 -1 -0 1 2 2 1 1 1 0 0 -0 0 1 2 2 3 2 2 2 2
-1 -2 -3 -3 -2 -2 -1 -1 -0 0 0 0 0 0 -0 -0 -0 -0 -0 -1 -1 -1 -2 -2 -2 -2 -1 -1 -1 -1 -1 -1 -0 0 0 -0 -0 0 1 2 3 4 3 1 -1 -2 -2 -2 -3 -2 -1 1 1 1 1 2 2 2 1 1 2 2 3 4 4 4 3 2 2
-1 -2 -3 -3 -2 -2 -1 -1 -0 0 0 0 0 0 0 1 0 0 -0 -0 -1 -1 -1 -2 -2 -2 -2 -2 -1 -1 -1 -0 1 2 1 -0 -1 -2 -2 -2 -3 -3 -3 -3 -2 -2 -2 -2 -3 -1 1 4 5 5 4 3 2 2 3 3 3 2 2 1 2 3 4 4 4
Height
3004 3005 3006 3007 3008 3009 3009 3010 3011 3012 3013 3014 3014 3015 3017 3018 3019 3020 3021 3022 3023 3024 3025 3026 3027 3028 3029 3029 3030 3031 3033 3034 3035 3035 3036 3037 3038 3038 3039 3040 3041 3042 3042 3043 3044 3044 3045 3046 3046 3047 3048 3049 3049 3050 3051 3052 3053 3054 3055 3056 3057 3058 3059 3060 3061 3062 3063 3064 3064
3002 3003 3004 3004 3005 3006 3007 3008 3009 3010 3011 3012 3013 3014 3015 3016 3017 3018 3019 3020 3021 3022 3023 3024 3025 3026 3027 3027 3028 3029 3030 3032 3033 3034 3034 3035 3036 3036 3037 3038 3039 3039 3040 3041 3042 3043 3043 3044 3044 3045 3046 3047 3048 3048 3049 3050 3051 3052 3054 3054 3055 3056 3057 3058 3059 3059 3060 3061 3062
3000 3000 3001 3002 3003 3004 3005 3006 3007 3008 3009 3010 3011 3012 3013 3014 3014 3015 3016 3018 3019 3020 3021 3022 3023 3023 3024 3025 3026 3027 3028 3030 3031 3032 3032 3033 3034 3035 3036 3036 3037 3038 3039 3039 3040 3041 3041 3042 3043 3043 3044 3044 3045 3046 3047 3048 3049 3050 3051 3052 3053 3054 3055 3055 3056 3057 3058 3058 3059
2998 2999 2999 3000 3000 3001 3002 3003 3004 3005 3007 3008 3009 3010 3011 3012 3013 3014 3014 3015 3017 3018 3019 3019 3020 3021 3022 3023 3024 3025 3026 3027 3029 3030 3030 3031 3032 3033 3034 3035 3036 3037 3038 3039 3039 3039 3039 3040 3041 3041 3042 3043 3043 3044 3045 3046 3047 3048 3049 3050 3051 3051 3052 3052 3053 3054 3054 3055 3056
2996 2997 2997 2998 2999 2999 3000 3001 3002 3003 3004 3005 3006 3007 3008 3009 3010 3011 3012 3014 3014 3015 3016 3017 3018 3019 3020 3021 3022 3023 3024 3025 3026 3027 3028 3029 3030 3031 3032 3033 3034 3035 3036 3037 3037 3037 3038 3039 3039 3040 3040 3041 3041 3042 3043 3044 3045 3046 3047 3048 3048 3049 3049 3050 3050 3051 3052 3052 3053
2994 2995 2995 2996 2997 2997 2998 2999 3000 3000 3002 3003 3004 3005 3006 3007 3008 3009 3010 3011 3012 3013 3014 3015 3016 3017 3018 3019 3020 3021 3022 3023 3024 3025 3026 3028 3029 3029 3030 3031 3032 3033 3034 3034 3035 3036 3036 3037 3038 3038 3039 3039 3039 3040 3041 3042 3043 3044 3044 3045 3046 3046 3047 3047 3048 3049 3049 3049 3050
2993 2993 2994 2994 2994 2995 2996 2997 2997 2998 2999 3000 3001 3002 3003 3004 3006 3007 3008 3009 3010 3011 3012 3013 3014 3015 3016 3017 3018 3019 3020 3021 3022 3023 3024 3025 3027 3028 3028 3029 3030 3031 3031 3032 3033 3034 3035 3035 3036 3037 3037 3038 3038 3039 3039 3040 3041 3041 3042 3043 3043 3044 3044 3045 3045 3046 3046 3047 3048
2991 2991 2991 2992 2993 2993 2994 2994 2995 2996 2997 2998 2999 3000 3001 3002 3004 3005 3006 3007 3008 3009 3010 3011 3012 3013 3014 3015 3016 3017 3018 3019 3020 3021 3022 3023 3024 3025 3026 3026 3028 3029 3029 3030 3031 3032 3033 3034 3035 3036 3036 3036 3037 3037 3038 3039 3039 3040 3040 3041 3041 3041 3042 3042 3042 3043 3044 3044 3045
2988 2989 2989 2990 2991 2991 2992 2993 2994 2994 2995 2996 2997 2998 2999 3000 3001 3002 3004 3005 3006 3007 3008 3009 3009 3010 3011 3013 3014 3014 3015 3017 3018 3019 3020 3021 3022 3023 3024 3024 3025 3026 3027 3028 3029 3030 3031 3032 3033 3034 3035 3035 3036 3036 3037 3038 3038 3039 3039 3039 3039 3039 3040 3040 3040 3040 3041 3042 3043
2986 2986 2987 2988 2988 2989 2990 2991 2992 2992 2993 2994 2995 2996 2997 2998 2999 3000 3001 3002 3003 3004 3006 3007 3008 3009 3009 3010 3011 3012 3013 3014 3016 3017 3018 3019 3020 3021 3021 3022 3023 3023 3024 3025 3027 3028 3029 3030 3031 3032 3033 3034 3034 3035 3035 3036 3037 3037 3037 3038 3038 3038 3038 3039 3039 3039 3039 3039 3040
2983 2984 2984 2985 2986 2987 2988 2989 2989 2990 2991 2992 2993 2994 2994 2995 2996 2997 2998 2999 3001 3002 3004 3004 3006 3007 3008 3009 3009 3010 3011 3013 3014 3015 3016 3017 3018 3019 3019 3020 3021 3021 3021 3022 3024 3025 3027 3028 3029 3029 3031 3032 3033 3033 3034 3034 3035 3035 3035 3036 3036 3037 3037 3037 3038 3038 3038 3038 3039
2980 2981 2981 2982 2983 2984 2985 2986 2987 2988 2989 2990 2991 2992 2992 2993 2994 2995 2996 2997 2999 3000 3001 3003 3004 3005 3006 3007 3008 3009 3009 3011 3012 3013 3014 3015 3015 3016 3017 3018 3019 3019 3019 3020 3021 3023 3024 3025 3026 3027 3028 3029 3030 3031 3032 3032 3033 3033 3033 3034 3034 3035 3035 3036 3037 3037 3038 3038 3038
2978 2978 2979 2979 2980 2981 2982 2984 2985 2986 2987 2988 2989 2989 2990 2991 2992 2993 2994 2995 2996 2998 2999 3001 3003 3004 3004 3005 3006 3007 3008 3009 3010 3011 3012 3013 3014 3014 3015 3016 3017 3018 3018 3018 3019 3020 3021 3022 3023 3024 3025 3027 3028 3029 3029 3030 3030 3030 3031 3031 3032 3033 3034 3034 3035 3036 3036 3037 3037
2975 2975 2976 2976 2977 2978 2979 2980 2982 2983 2984 2985 2986 2987 2988 2989 2990 2991 2992 2993 2994 2995 2997 2999 3001 3002 3003 3004 3005 3006 3007 3008 3009 3009 3011 3011 3012 3013 3014 3014 3015 3016 3017 3017 3017 3018 3019 3020 3021 3022 3024 3024 3026 3027 3028 3028 3028 3028 3029 3029 3030 3031 3031 3032 3033 3034 3034 3036 3036
2973 2973 2973 2974 2974 2975 2976 2978 2979 2980 2982 2983 2984 2985 2986 2987 2989 2990 2990 2991 2992 2994 2996 2997 2998 2999 3000 3002 3003 3004 3005 3007 3008 3009 3009 3010 3011 3012 3013 3013 3014 3015 3016 3015 3016 3016 3018 3018 3019 3020 3021 3023 3024 3024 3025 3026 3026 3027 3027 3028 3028 3029 3029 3030 3030 3031 3032 3034 3035
2970 2970 2971 2971 2972 2973 2974 2975 2976 2978 2979 2980 2981 2983 2984 2985 2987 2988 2989 2989 2991 2992 2994 2995 2996 2997 2999 3000 3002 3003 3004 3005 3006 3008 3009 3010 3011 3011 3012 3012 3013 3014 3015 3014 3014 3015 3016 3016 3017 3018 3019 3020 3021 3022 3023 3024 3024 3025 3025 3026 3027 3027 3027 3027 3028 3029 3030 3031 3033
2968 2968 2968 2969 2969 2970 2971 2972 2974 2975 2976 2978 2979 2980 2982 2983 2984 2986 2987 2988 2989 2990 2992 2993 2994 2995 2997 2998 3000 3001 3002 3004 3005 3007 3008 3009 3010 3010 3011 3011 3012 3013 3014 3013 3013 3013 3014 3014 3015 3016 3017 3018 3019 3019 3020 3021 3022 3023 3023 3024 3025 3025 3025 3025 3026 3027 3028 3029 3030
2966 2966 2966 2966 2967 2968 2969 2970 2971 2972 2974 2975 2976 2978 2979 2981 2982 2984 2985 2986 2987 2988 2989 2990 2992 2993 2995 2996 2998 2999 3001 3002 3004 3005 3007 3008 3009 3009 3009 3009 3010 3011 3012 3012 3011 3011 3012 3013 3014 3014 3015 3016 3017 3017 3018 3019 3019 3020 3021 3022 3023 3024 3024 3024 3024 3024 3025 3026 3028
2964 2964 2964 2964 2965 2965 2966 2967 2968 2969 2971 2972 2974 2975 2977 2978 2980 2981 2982 2984 2985 2986 2987 2989 2990 2991 2993 2994 2995 2997 2999 3000 3002 3003 3005 3006 3007 3007 3008 3008 3009 3009 3010 3011 3010 3009 3010 3011 3012 3013 3013 3014 3014 3015 3016 3017 3017 3018 3019 3020 3021 3022 3022 3023 3023 3023 3023 3024 3026
2962 2962 2962 2962 2963 2963 2964 2965 2966 2967 2968 2970 2971 2973 2974 2976 2977 2979 2980 2981 2983 2984 2985 2987 2988 2989 2991 2992 2994 2995 2997 2998 2999 3001 3003 3004 3005 3005 3006 3006 3007 3007 3008 3008 3007 3007 3008 3009 3010 3011 3011 3012 3012 3013 3014 3014 3015 3016 3017 3018 3019 3019 3020 3021 3021 3021 3021 3022 3024
2960 2960 2960 2961 2961 2961 2962 2963 2964 2965 2966 2967 2969 2970 2972 2974 2975 2977 2978 2979 2980 2982 2983 2984 2986 2987 2989 2990 2991 2993 2994 2996 2998 2999 3000 3002 3003 3003 3004 3005 3005 3005 3005 3005 3005 3005 3006 3007 3008 3009 3009 3010 3010 3011 3012 3012 3013 3014 3014 3015 3017 3018 3018 3019 3019 3020 3020 3020 3021
2959 2959 2959 2959 2959 2960 2960 2961 2962 2963 2964 2965 2967 2968 2970 2972 2973 2974 2976 2977 2979 2980 2981 2982 2984 2985 2987 2988 2989 2991 2992 2994 2996 2997 2999 2999 3001 3001 3002 3004 3004 3004 3004 3004 3003 3004 3004 3005 3006 3006 3007 3008 3008 3009 3009 3010 3011 3012 3013 3014 3014 3015 3016 3017 3018 3018 3018 3019 3019
2958 2958 2958 2958 2959 2959 2959 2960 2960 2961 2962 2964 2965 2966 2968 2969 2971 2973 2974 2975 2977 2978 2979 2980 2982 2983 2984 2986 2987 2989 2990 2992 2994 2995 2996 2998 2999 3000 3001 3002 3002 3002 3002 3002 3002 3003 3003 3004 3004 3004 3005 3005 3006 3007 3007 3008 3009 3010 3010 3011 3012 3013 3014 3015 3016 3016 3017 3017 3017
2957 2957 2957 2957 2958 2958 2958 2959 2959 2960 2961 2962 2963 2965 2966 2968 2969 2971 2972 2974 2975 2976 2978 2979 2980 2982 2983 2984 2985 2987 2989 2990 2992 2993 2994 2996 2997 2998 2999 2999 3000 3000 3000 3001 3001 3002 3002 3002 3002 3003 3003 3003 3004 3004 3005 3006 3007 3008 3009 3009 3010 3011 3012 3013 3014 3014 3015 3015 3016
2956 2956 2956 2957 2957 2957 2957 2958 2959 2959 2960 2961 2962 2964 2965 2966 2968 2969 2971 2972 2974 2975 2976 2977 2979 2980 2981 2983 2984 2985 2987 2988 2989 2991 2992 2994 2995 2996 2997 2997 2998 2998 2999 2999 3000 3001 3001 3001 3001 3001 3001 3001 3002 3002 3003 3004 3005 3006 3007 3008 3009 3009 3010 3011 3012 3013 3013 3014 3014
2956 2956 2956 2956 2956 2956 2957 2957 2958 2958 2959 2960 2961 2962 2964 2965 2966 2968 2969 2971 2972 2973 2974 2976 2977 2979 2980 2981 2982 2984 2985 2986 2988 2989 2990 2992 2993 2994 2995 2995 2996 2996 2997 2997 2999 2999 3000 3000 3000 2999 2999 2999 3000 3001 3001 3002 3003 3004 3005 3006 3007 3008 3009 3009 3010 3011 3011 3012 3013
2955 2955 2955 2955 2955 2956 2956 2957 2957 2958 2959 2959 2960 2961 2963 2964 2965 2967 2968 2969 2970 2972 2973 2974 2976 2977 2978 2979 2981 2982 2983 2985 2986 2988 2989 2990 2991 2992 2993 2994 2994 2994 2995 2995 2996 2997 2999 2999 2999 2999 2998 2998 2999 2999 3000 3000 3001 3003 3004 3004 3005 3006 3007 3007 3008 3009 3010 3011 3011
2955 2954 2954 2955 2955 2955 2956 2956 2957 2957 2958 2959 2960 2961 2962 2963 2964 2965 2967 2968 2969 2970 2972 2973 2974 2975 2977 2978 2979 2980 2982 2983 2984 2986 2987 2989 2990 2991 2991 2992 2992 2993 2993 2994 2994 2995 2996 2998 2999 2999 2999 2998 2998 2998 2998 2999 3000 3001 3002 3003 3003 3004 3005 3006 3007 3008 3009 3009 3010
2954 2954 2954 2954 2954 2955 2955 2956 2956 2957 2957 2958 2959 2960 2961 2962 2964 2964 2966 2967 2968 2969 2970 2972 2973 2974 2975 2976 2978 2979 2980 2981 2983 2984 2985 2987 2988 2989 2990 2990 2991 2991 2992 2992 2993 2993 2994 2995 2996 2998 2998 2999 2998 2998 2998 2998 2999 2999 3000 3001 3002 3002 3003 3004 3005 3006 3007 3008 3009
2954 2954 2954 2954 2954 2954 2955 2955 2956 2956 2957 2958 2959 2960 2961 2962 2963 2964 2965 2966 2967 2968 2969 2970 2972 2973 2974 2975 2976 2978 2979 2980 2981 2983 2984 2985 2986 2987 2988 2989 2989 2990 2990 2991 2991 2992 2992 2993 2994 2995 2996 2997 2998 2998 2998 2997 2998 2998 2999 2999 3000 3001 3002 3002 3003 3004 3005 3006 3007
2954 2954 2954 2954 2954 2954 2955 2955 2956 2957 2957 2958 2959 2959 2960 2961 2962 2963 2964 2965 2966 2967 2968 2969 2970 2971 2973 2974 2975 2976 2977 2979 2980 2981 2982 2984 2985 2986 2987 2988 2988 2989 2989 2990 2990 2990 2991 2991 2992 2993 2994 2994 2995 2997 2997 2997 2997 2997 2998 2999 2999 3000 3000 3001 3002 3002 3003 3004 3005
2954 2954 2954 2954 2954 2954 2955 2955 2956 2957 2957 2958 2959 2959 2960 2961 2962 2963 2964 2964 2965 2966 2967 2969 2969 2970 2972 2973 2974 2975 2976 2977 2979 2980 2981 2982 2984 2984 2985 2986 2987 2987 2988 2989 2989 2989 2989 2990 2991 2992 2992 2993 2993 2994 2995 2997 2997 2997 2997 2998 2998 2999 2999 3000 3000 3001 3002 3003 3003
2954 2954 2954 2954 2954 2954 2954 2955 2956 2956 2957 2958 2959 2959 2960 2961 2961 2962 2963 2964 2965 2965 2966 2968 2969 2969 2971 2972 2973 2974 2975 2976 2977 2979 2980 2981 2982 2983 2984 2985 2985 2986 2987 2987 2988 2988 2988 2989 2989 2990 2991 2992 2992 2992 2993 2994 2996 2996 2996 2997 2997 2998 2998 2998 2999 2999 3000 3001 3002
2954 2954 2954 2954 2954 2954 2954 2955 2956 2956 2957 2958 2958 2959 2960 2960 2961 2962 2963 2963 2964 2965 2966 2967 2968 2969 2970 2971 2972 2973 2974 2975 2976 2977 2978 2979 2980 2982 2982 2983 2984 2984 2985 2986 2986 2987 2987 2987 2988 2989 2989 2990 2991 2991 2992 2992 2994 2994 2995 2995 2995 2996 2996 2997 2997 2998 2999 2999 3000
2954 2954 2954 2954 2954 2954 2954 2955 2955 2956 2957 2957 2958 2959 2959 2960 2961 2961 2962 2963 2963 2964 2965 2966 2967 2968 2969 2970 2971 2972 2973 2974 2975 2976 2977 2978 2979 2980 2981 2982 2982 2983 2984 2984 2985 2985 2985 2986 2986 2987 2988 2988 2989 2989 2990 2990 2991 2992 2993 2993 2994 2994 2994 2995 2996 2996 2997 2998 2999
2954 2954 2954 2954 2954 2954 2954 2955 2955 2956 2956 2957 2958 2958 2959 2959 2960 2961 2961 2962 2963 2964 2964 2965 2966 2967 2968 2969 2970 2971 2972 2973 2974 2975 2976 2977 2978 2979 2979 2980 2981 2982 2983 2983 2983 2984 2984 2984 2985 2985 2986 2986 2987 2987 2988 2988 2989 2990 2990 2991 2992 2992 2993 2993 2994 2995 2995 2996 2997
2954 2954 2954 2954 2954 2954 2954 2954 2955 2955 2956 2956 2957 2958 2958 2959 2959 2960 2961 2962 2962 2963 2964 2964 2965 2966 2967 2968 2969 2970 2971 2972 2973 2974 2975 2976 2977 2978 2978 2979 2979 2980 2981 2981 2982 2982 2983 2983 2983 2984 2984 2985 2985 2985 2986 2987 2987 2988 2989 2989 2990 2990 2991 2992 2993 2993 2994 2994 2995
2954 2954 2954 2954 2954 2954 2954 2954 2955 2955 2955 2956 2956 2957 2958 2958 2959 2959 2960 2961 2961 2962 2963 2964 2964 2965 2966 2967 2968 2969 2970 2971 2972 2973 2974 2974 2975 2976 2977 2977 2978 2978 2979 2979 2980 2981 2981 2982 2982 2982 2983 2983 2984 2984 2984 2985 2985 2986 2987 2987 2988 2989 2989 2990 2991 2992 2992 2993 2993
2954 2954 2953 2954 2954 2954 2954 2954 2954 2955 2955 2956 2956 2957 2957 2958 2958 2959 2959 2960 2961 2961 2962 2963 2964 2964 2965 2966 2967 2968 2969 2970 2971 2972 2973 2974 2974 2975 2975 2976 2976 2977 2977 2978 2979 2979 2980 2980 2980 2981 2981 2982 2982 2983 2983 2984 2984 2985 2985 2986 2987 2987 2988 2989 2989 2990 2990 2991 2992
2954 2953 2953 2953 2954 2954 2954 2954 2954 2954 2955 2955 2956 2956 2957 2957 2958 2958 2959 2959 2960 2961 2961 2962 2963 2964 2964 2965 2966 2967 2968 2969 2970 2971 2972 2972 2973 2974 2974 2974 2974 2975 2976 2977 2978 2978 2979 2979 2979 2979 2980 2981 2981 2982 2982 2982 2983 2983 2984 2984 2985 2986 2986 2987 2988 2988 2989 2989 2990
2953 2953 2953 2953 2953 2953 2954 2954 2954 2954 2955 2955 2955 2956 2956 2957 2957 2958 2958 2959 2959 2960 2960 2961 2962 2963 2964 2964 2965 2966 2967 2968 2969 2969 2970 2971 2972 2972 2973 2973 2974 2974 2975 2976 2976 2977 2977 2978 2978 2978 2979 2979 2980 2980 2981 2981 2981 2982 2983 2983 2984 2984 2984 2985 2985 2986 2987 2988 2989